Regional Weather Roundup
Issued by NWS

Current Version | Previous Version | Text Only | Print | Product List | Glossary On
Versions: 1 2 3 4 5 6 7 8 9 10 11 12 13 14 15 16 17 18 19 20 21 22 23 24 25 26 27 28 29 30 31 32 33 34 35 36 37 38 39 40 41 42 43 44 45 46 47 48 49 50
000
ASUS45 KABQ 200801
RWRNM
NEW MEXICO REGIONAL WEATHER ROUNDUP
NATIONAL WEATHER SERVICE ALBUQUERQUE NM
200 AM MDT WED SEP 20 2017

NOTE: "FAIR" MEANS FEW OR NO CLOUDS BELOW 12,000 FEET AGL WITH NO
       SIGNIFICANT WEATHER OR OBSTRUCTIONS TO VISION.

      THIS PRODUCT IS RELEASED AS TWO VERSIONS.  ONE VERSION NEAR
      THE TOP OF THE HOUR CONTAINING PRELIMINARY DATA FROM ALBUQUERQUE
      AND OTHER STATIONS.  A FINAL VERSION WITH ADDITIONAL DATA IS
      ISSUED ABOUT 10 MINUTES AFTER THE HOUR.

NMZ501-503-504-510>518-200900-
NORTHWEST PLATEAU/NORTHCENTRAL MOUNTAINS

CITY           SKY/WX    TMP DP  RH WIND       PRES   REMARKS
FARMINGTON     FAIR      59  21  23 SW8       29.98R
LOS ALAMOS     FAIR      63  29  27 NW8G17    30.11S
SANTA FE       FAIR      59  31  34 MISG      30.06R
TAOS           FAIR      57  22  25 W13       30.12R
ANGEL FIRE     FAIR      55  19  24 W28G33    30.10F

$$
NMZ402-403-502-505>509-200900-
WESTCENTRAL MOUNTAINS/SOUTHWEST MOUNTAINS

CITY           SKY/WX    TMP DP  RH WIND       PRES   REMARKS
GALLUP         FAIR     N/A N/A N/A CALM      30.11R
GRANTS         FAIR      64  32  30 SE7       30.09S
SILVER CITY    FAIR      56  42  58 NW5       30.08S

$$
NMZ407-409-411-412-200900-
SOUTHERN DESERTS

CITY           SKY/WX    TMP DP  RH WIND       PRES   REMARKS
DEMING         FAIR      66  48  52 W9        30.01R
LAS CRUCES     FAIR      67  45  44 W7        30.01S
HOLLOMAN AFB   FAIR      70  43  37 SW8       29.96S
ALAMOGORDO     FAIR      66  41  39 S8        29.97S
T OR C         FAIR      67  40  37 N6        30.00S

$$
NMZ519>523-200900-
CENTRAL VALLEYS/CENTRAL HIGHLANDS

CITY           SKY/WX    TMP DP  RH WIND       PRES   REMARKS
ALBUQUERQUE    FAIR      69  36  29 SW15      30.02R
CLINES CORNERS FAIR      59  28  30 W15       30.09R
BELEN          FAIR      61  33  34 W9        30.02S
SOCORRO        FAIR      68  37  31 CALM      29.99S

$$
NMZ524>526-539-540-200900-
SOUTHCENTRAL MOUNTAINS

CITY           SKY/WX    TMP DP  RH WIND       PRES   REMARKS
RUIDOSO        FAIR      63  37  39 W9        30.14S

$$
NMZ527>531-200900-
NORTHEAST HIGHLANDS/NORTHEAST PLAINS

CITY           SKY/WX    TMP DP  RH WIND       PRES   REMARKS
LAS VEGAS      FAIR      64  23  21 VRB6      30.03R
RATON          FAIR      60  22  23 NW5       29.96R
CLAYTON        FAIR      65  22  19 W10       29.86R

$$
NMZ532>537-200900-
EASTCENTRAL PLAINS

CITY           SKY/WX    TMP DP  RH WIND       PRES   REMARKS
SANTA ROSA     FAIR      62  35  36 SW10      29.93R
TUCUMCARI      FAIR      65  34  31 SW8       29.82S
CANNON AFB     FAIR      67  43  41 W12       29.91S
CLOVIS AIRPORT FAIR      67  45  45 W12       29.89S

$$
NMZ028-029-538-200900-
SOUTHEAST PLAINS

CITY           SKY/WX    TMP DP  RH WIND       PRES   REMARKS
ROSWELL        FAIR      71  44  37 W9        29.88R
ARTESIA        FAIR      70  46  43 SW9       29.90R
CARLSBAD       FAIR      73  50  44 W9        29.88R
HOBBS          FAIR      72  55  56 SW10      29.91S


$$



USA.gov is the U.S. government's official web portal to all federal, state and local government web resources and services.